Observations for Trim Market St
| Time | AQI | Temp °C | Hum % | Pres Pa | CO μg/m³ | H₂S μg/m³ | NO μg/m³ | NO₂ μg/m³ | O₃ μg/m³ | SO₂ μg/m³ | PM1 μg/m³ | PM2.5 μg/m³ | PM10 μg/m³ |
|---|---|---|---|---|---|---|---|---|---|---|---|---|---|
| Wednesday 15 July 2026 | |||||||||||||
| 20:39 | 1 | 23.9 | 53 | 56,748 | 0 | 0 | 0 | 7.74 | 36.33 | 0 | 7.84 | 9.95 | 13.33 |
| 20:38 | 1 | 23.9 | 53 | 56,705 | 0 | 0 | 0 | 7.24 | 34.42 | 0 | 6.41 | 8.93 | 13.33 |
| 20:34 | 1 | 24 | 53 | 56,551 | 0 | 0 | 0 | 8.05 | 35.14 | 0 | 7.13 | 8.95 | 13.35 |
| 20:33 | 1 | 24 | 53 | 56,515 | 0 | 0 | 0 | 8.36 | 35.82 | 0 | 7.84 | 10.49 | 14.81 |
| 20:27 | 1 | 24.2 | 52 | 56,258 | 0 | 0 | 0 | 7.88 | 36.41 | 0 | 7.13 | 10.02 | 13.38 |
| 20:26 | 1 | 24.2 | 52 | 56,221 | 0 | 0 | 0 | 8.08 | 33.25 | 0 | 8.55 | 12.06 | 18.5 |
| 20:19 | 1 | 24.4 | 52 | 55,957 | 0 | 0 | 0 | 7.73 | 38.25 | 0 | 6.41 | 11.61 | 17.1 |
| 20:18 | 1 | 24.5 | 51 | 55,915 | 0 | 0 | 0 | 8.71 | 36.42 | 0 | 8.55 | 11.11 | 15.64 |
| 20:17 | 1 | 24.5 | 51 | 55,862 | 0 | 0 | 0 | 7.93 | 37.83 | 0 | 9.26 | 12.66 | 17.13 |
| 20:16 | 1 | 24.5 | 51 | 55,814 | 0 | 0 | 0 | 7.56 | 39.57 | 0 | 9.26 | 11.65 | 15.66 |
| 20:15 | 1 | 24.6 | 51 | 55,783 | 0 | 0 | 0 | 7.34 | 38.92 | 0 | 10.69 | 15.24 | 20.85 |
| 20:14 | 1 | 24.6 | 51 | 55,729 | 0 | 0 | 0 | 7.06 | 38.7 | 0 | 9.98 | 12.69 | 17.17 |
| 20:13 | 1 | 24.6 | 51 | 55,708 | 0 | 0 | 0 | 6.97 | 36.38 | 0 | 8.55 | 12.19 | 16.43 |
| 20:12 | 1 | 24.7 | 51 | 55,717 | 0 | 0 | 0 | 7.75 | 37.59 | 0 | 7.13 | 11.67 | 15.69 |
| 20:11 | 1 | 24.7 | 50 | 55,739 | 0 | 0 | 0 | 6.86 | 36.77 | 0 | 7.84 | 11.17 | 14.95 |
| 20:10 | 1 | 24.7 | 50 | 55,774 | 0 | 0 | 0 | 7.87 | 35.13 | 0 | 7.84 | 10.66 | 14.96 |
| 20:09 | 1 | 24.8 | 50 | 55,829 | 0 | 0 | 0 | 8.25 | 37.75 | 0 | 7.13 | 10.67 | 14.97 |
| 20:08 | 1 | 24.8 | 50 | 55,902 | 0 | 0 | 0 | 7.87 | 32.51 | 0 | 7.13 | 11.19 | 15.72 |
| 20:07 | 1 | 24.8 | 50 | 56,003 | 0 | 0 | 0 | 7.48 | 37.34 | 0 | 7.84 | 10.68 | 15.72 |
| 20:06 | 1 | 24.8 | 50 | 56,152 | 0 | 0 | 0 | 5.09 | 38.84 | 0 | 7.13 | 10.68 | 14.98 |